Wind_Speed
25 19 15 11 7 4 6 8 9 10 9 7 7 8 9 8 8 8 8 9 8 6 5 3 5 4 9 12 11 13 16 17 8 9 14 17 18 17 20 19 17 18 21
25 14 14 9 5 5 6 6 8 10 9 7 6 6 7 7 8 8 9 9 8 6 6 5 4 5 5 8 9 10 10 11 12 12 15 15 16 17 15 13 17 20 20
13 12 10 7 4 5 5 5 6 8 9 7 5 4 4 5 7 8 8 10 8 7 7 6 4 3 3 5 7 9 11 11 12 12 13 13 15 13 17 18 18 14 14
15 8 8 5 3 4 4 5 5 6 8 9 8 5 4 5 6 6 7 9 10 9 8 7 5 3 1 2 4 6 8 9 10 11 12 13 12 15 12 14 16 17 20
2 6 7 6 5 3 3 4 6 6 6 7 9 9 7 6 5 5 7 8 7 8 9 9 8 6 4 4 5 6 7 8 10 11 13 13 11 12 15 16 16 20 23
5 8 8 9 9 6 3 3 5 6 7 7 8 9 9 8 8 6 5 6 6 6 8 8 7 6 6 6 6 6 6 7 8 8 9 10 11 12 13 14 18 18 20
10 11 13 13 15 13 8 5 4 7 9 10 9 9 8 8 8 7 7 6 5 6 8 8 7 7 7 7 8 8 8 9 9 10 10 12 14 15 16 17 18 19 19
10 9 13 15 15 18 18 10 3 7 9 13 8 8 9 8 7 6 6 6 6 10 9 10 8 10 11 11 10 10 10 9 9 10 13 15 15 16 16 17 18 18 19
14 19 15 16 23 21 6 10 2 9 11 14 12 9 8 7 7 6 6 5 7 8 9 11 11 13 16 14 10 9 9 10 11 13 13 12 13 13 14 14 15 16 17
11 13 11 11 5 7 5 7 9 10 12 16 13 13 11 9 11 7 9 11 10 10 12 12 12 15 17 15 13 12 12 13 14 15 14 15 16 16 16 17 17 18 20
7 8 14 22 13 11 8 8 11 13 13 15 16 13 12 10 12 9 12 9 9 14 11 14 16 18 19 18 16 14 13 13 14 15 15 17 18 19 20 20 20 19 19
16 15 18 19 28 25 19 14 14 17 17 14 16 16 12 9 7 12 14 11 13 16 14 16 15 17 20 17 15 15 15 16 17 18 19 20 21 20 19 18 17 17 17
15 16 16 14 16 19 21 19 18 20 17 20 18 15 11 11 13 12 14 12 15 14 21 19 15 21 21 17 15 15 16 17 18 19 19 20 19 18 18 18 17 17 16
15 16 16 17 17 20 20 16 17 17 16 17 20 14 11 10 11 15 13 16 17 22 14 15 20 20 17 18 18 18 18 18 18 17 17 16 16 16 16 17 17 17 16
13 13 12 12 13 14 14 15 16 17 17 16 16 11 11 11 11 12 13 17 21 13 16 20 18 18 18 17 18 17 16 16 17 18 18 19 19 19 18 17 16 16 16
13 12 13 14 15 14 14 14 14 17 14 19 13 12 13 13 14 14 14 13 10 15 16 15 15 16 16 15 14 13 12 13 14 15 16 17 18 18 18 18 18 17 16
16 17 17 15 12 10 10 12 14 12 12 11 12 11 10 10 9 9 10 11 11 12 12 12 12 12 12 12 12 13 13 13 14 14 14 15 16 18 18 18 17 17 17
13 12 11 9 10 10 9 9 9 9 9 9 8 8 8 8 8 9 9 9 9 9 9 9 9 10 10 10 11 12 12 13 14 16 18 17 17 17 17 17 17 16 16
13 12 12 12 10 7 6 6 6 5 5 5 6 7 7 7 7 7 7 7 7 7 7 7 6 6 9 10 9 9 11 14 17 18 18 18 16 16 17 16 15 15 14
14 14 14 10 7 5 5 4 3 4 5 5 5 6 6 7 8 7 6 6 6 6 5 6 7 9 10 10 8 10 13 16 18 18 18 17 16 16 15 15 14 14 16
15 13 10 7 5 5 4 3 4 4 4 5 5 5 5 5 5 5 5 5 6 6 8 9 9 8 7 8 11 14 17 19 21 20 21 21 19 19 19 19 19 20 21
15 12 9 8 6 5 4 4 4 3 3 4 5 5 5 7 8 8 7 7 9 6 6 8 11 11 11 13 16 17 19 21 22 24 23 23 22 22 22 23 24 25 27
15 12 10 9 7 6 5 4 4 4 2 4 8 10 11 12 12 11 10 10 11 8 9 13 14 16 16 19 21 22 26 26 27 27 26 26 27 27 27 27 27 28 28
14 13 12 11 9 7 5 3 4 4 3 9 11 11 12 12 10 9 11 12 13 14 14 15 17 19 21 24 24 24 27 29 30 30 30 30 30 30 30 30 29 29 29
15 14 13 11 9 6 5 5 7 9 13 17 14 13 12 10 8 11 13 15 17 18 20 20 21 23 25 26 28 30 30 31 31 32 32 31 30 30 29 29 29 29 29
15 16 13 12 10 9 9 10 12 14 18 19 17 11 12 14 14 15 18 20 21 23 23 24 25 27 28 29 29 29 29 29 30 30 31 31 30 30 30 30 30 29 29
Wind_Direction
242 230 227 223 244 294 328 337 348 0 11 13 16 13 6 21 22 19 23 27 27 28 34 28 7 348 213 205 226 230 234 250 271 238 234 241 247 258 265 272 279 278 280
233 203 198 195 242 302 329 343 2 5 8 11 11 25 26 24 29 29 27 28 34 36 47 50 61 62 129 188 217 222 228 249 262 259 259 259 262 263 278 273 287 286 284
105 166 182 192 242 314 316 351 3 11 6 355 2 27 14 8 9 12 20 28 31 32 35 38 55 101 173 202 226 243 254 259 259 255 257 258 261 265 259 278 277 296 288
128 171 184 204 256 298 319 354 355 7 3 358 352 348 338 343 346 14 19 25 28 31 36 32 25 18 339 272 257 258 261 262 263 261 259 263 274 272 272 270 287 284 286
172 179 187 216 224 272 311 3 359 354 354 356 351 341 333 324 318 349 357 11 25 29 25 26 27 21 355 310 285 279 276 274 276 277 277 277 275 266 266 272 262 274 285
249 222 214 212 218 231 275 343 6 354 345 341 339 337 332 327 312 316 336 350 360 6 7 6 0 355 349 335 323 311 301 294 290 291 294 294 295 295 292 282 279 283 284
256 243 232 223 225 233 231 251 316 332 342 331 316 319 324 323 311 304 312 318 328 340 343 346 345 341 336 328 314 304 301 303 303 304 304 302 298 294 291 289 287 286 289
273 273 251 244 256 265 256 221 272 308 319 328 317 306 309 310 306 297 294 308 328 342 345 351 351 355 348 336 316 301 296 292 289 290 290 287 286 288 287 285 284 284 284
260 254 249 286 287 269 124 198 14 303 304 325 329 327 302 298 278 283 291 282 324 328 334 342 342 347 345 341 333 310 297 291 290 294 294 290 291 292 289 286 282 281 277
271 284 268 261 262 278 286 306 262 279 288 309 308 315 312 289 278 270 297 304 299 316 326 329 334 341 341 338 333 322 310 306 303 305 304 302 302 302 299 296 294 290 290
265 281 282 249 251 268 270 284 289 282 281 296 300 304 293 286 275 264 286 301 308 309 318 325 321 328 334 330 326 323 320 310 302 300 301 302 302 303 303 302 300 296 292
268 273 271 271 248 265 270 263 284 277 290 278 297 302 285 266 267 277 279 287 294 297 296 305 311 318 322 320 315 312 310 308 307 307 307 306 305 305 304 303 302 300 296
294 287 269 262 255 263 275 280 272 272 281 286 289 293 284 248 248 278 279 285 292 289 306 301 299 316 316 311 310 308 308 306 304 303 302 304 307 309 309 308 307 305 303
278 274 266 266 267 270 274 268 266 268 272 271 286 289 278 259 259 266 266 292 277 295 297 312 305 307 310 310 312 313 312 310 311 312 314 313 313 314 313 311 309 306 303
269 270 266 267 269 264 264 267 268 267 270 277 287 279 280 264 277 277 274 273 281 286 295 297 300 305 308 312 316 317 317 319 320 321 321 321 320 318 316 315 311 305 300
273 271 270 267 264 261 261 260 262 264 263 256 274 275 275 271 268 270 273 281 280 286 289 293 298 305 311 316 318 320 320 321 323 324 324 323 322 320 317 315 314 311 304
280 277 269 261 254 250 254 260 258 255 254 263 270 272 273 276 280 284 288 292 291 285 283 286 293 301 308 313 318 325 330 338 342 343 342 339 333 328 324 319 314 309 305
266 260 260 265 271 273 267 253 249 253 258 265 270 274 280 286 288 286 286 285 281 275 279 288 297 305 312 321 328 333 334 333 333 334 336 338 341 338 329 323 319 316 310
265 268 271 273 272 263 256 258 264 262 265 275 283 286 288 287 288 291 288 279 279 285 289 292 299 314 320 320 325 336 344 345 342 336 332 337 342 346 342 335 330 327 324
271 272 274 269 256 252 261 264 268 279 282 284 289 295 295 295 294 294 293 291 285 283 286 293 297 315 316 312 324 337 337 337 342 345 345 333 328 332 334 334 333 332 331
268 264 253 240 232 238 235 236 245 259 279 284 282 279 285 297 307 313 313 323 324 318 312 301 294 303 311 332 323 323 324 330 337 335 328 331 326 319 312 309 307 309 311
259 246 230 219 216 217 225 237 251 264 279 274 277 287 308 327 332 327 323 328 328 299 297 295 282 299 309 312 319 320 323 325 324 322 319 316 316 317 315 311 307 307 302
244 230 219 208 209 224 226 231 222 246 269 330 325 318 315 317 317 317 312 302 320 287 294 307 305 298 303 304 310 298 313 318 317 313 312 311 310 309 306 303 298 296 293
221 212 212 216 222 224 236 246 278 309 297 314 312 304 299 293 298 300 285 283 290 301 297 295 294 297 299 300 303 307 312 312 310 310 311 311 309 306 303 302 296 293 288
215 210 212 216 222 231 249 273 305 308 305 298 303 291 279 297 274 278 289 280 282 289 296 299 303 304 304 306 308 308 308 308 309 310 309 309 308 306 304 302 301 297 295
212 219 213 217 226 243 262 287 295 288 288 295 292 286 278 277 273 265 266 276 285 292 298 302 304 305 305 305 304 305 306 307 306 306 306 306 306 305 305 304 302 300 298
Height
3165 3169 3173 3177 3178 3177 3176 3174 3173 3171 3169 3167 3166 3164 3164 3161 3160 3158 3156 3154 3153 3153 3152 3152 3151 3150 3150 3153 3156 3158 3159 3161 3160 3161 3162 3164 3165 3165 3164 3164 3163 3162 3161
3152 3165 3171 3174 3177 3177 3176 3174 3173 3171 3169 3168 3166 3165 3164 3163 3162 3160 3158 3156 3154 3154 3152 3152 3152 3152 3153 3154 3156 3157 3157 3158 3159 3159 3159 3160 3158 3159 3159 3158 3158 3157 3156
3161 3168 3172 3175 3177 3176 3176 3174 3173 3171 3170 3169 3167 3165 3164 3164 3163 3161 3159 3158 3156 3155 3153 3153 3152 3153 3154 3155 3156 3157 3157 3157 3157 3157 3157 3156 3156 3156 3155 3155 3154 3153 3151
3166 3170 3173 3175 3177 3176 3175 3174 3174 3172 3171 3170 3168 3166 3164 3164 3163 3162 3160 3159 3157 3156 3155 3154 3153 3153 3153 3154 3154 3155 3155 3155 3154 3154 3153 3153 3153 3152 3152 3151 3150 3150 3148
3172 3171 3172 3174 3175 3176 3175 3174 3173 3173 3171 3169 3168 3167 3165 3164 3163 3161 3161 3159 3158 3157 3157 3155 3154 3153 3153 3153 3153 3153 3153 3152 3152 3151 3150 3150 3150 3149 3148 3147 3146 3145 3144
3173 3172 3172 3172 3172 3173 3174 3174 3173 3173 3171 3169 3168 3167 3165 3164 3163 3161 3160 3160 3159 3158 3157 3156 3155 3154 3153 3153 3152 3152 3151 3150 3150 3149 3148 3147 3146 3145 3144 3143 3142 3141 3139
3170 3171 3171 3169 3168 3170 3172 3174 3173 3172 3170 3168 3167 3166 3164 3163 3162 3161 3160 3159 3158 3157 3157 3156 3154 3153 3153 3152 3151 3149 3148 3148 3147 3147 3146 3144 3143 3141 3140 3139 3137 3136 3134
3169 3169 3169 3168 3168 3168 3168 3169 3169 3169 3168 3166 3164 3163 3163 3162 3161 3161 3160 3159 3158 3157 3156 3155 3153 3152 3151 3150 3148 3147 3146 3145 3145 3144 3143 3141 3139 3137 3135 3133 3132 3131 3130
3165 3166 3165 3166 3166 3165 3162 3164 3166 3166 3165 3163 3162 3161 3161 3160 3160 3159 3159 3158 3158 3157 3156 3154 3153 3151 3149 3148 3146 3145 3144 3142 3141 3140 3139 3137 3135 3133 3131 3130 3128 3127 3126
3162 3163 3162 3163 3163 3163 3163 3162 3163 3163 3162 3161 3161 3160 3159 3158 3157 3157 3157 3157 3156 3155 3154 3152 3151 3149 3147 3145 3144 3142 3140 3139 3137 3135 3134 3133 3131 3129 3127 3126 3123 3122 3120
3160 3159 3160 3161 3160 3161 3161 3161 3160 3160 3160 3159 3158 3158 3157 3155 3155 3154 3155 3154 3154 3154 3152 3150 3148 3146 3144 3141 3139 3139 3137 3135 3134 3132 3130 3128 3127 3125 3123 3121 3118 3117 3115
3156 3156 3156 3155 3157 3158 3157 3154 3156 3156 3156 3155 3155 3154 3153 3153 3153 3153 3152 3152 3151 3150 3149 3148 3146 3145 3143 3140 3137 3135 3134 3132 3130 3128 3127 3125 3123 3121 3119 3117 3115 3113 3112
3149 3150 3151 3151 3153 3154 3153 3152 3153 3153 3152 3152 3152 3149 3148 3149 3149 3150 3149 3149 3149 3147 3145 3143 3142 3141 3139 3137 3135 3132 3131 3129 3127 3125 3123 3121 3119 3117 3115 3113 3111 3109 3108
3146 3146 3147 3146 3147 3147 3148 3148 3149 3149 3149 3149 3148 3146 3146 3146 3146 3146 3146 3145 3145 3144 3143 3141 3139 3137 3134 3133 3131 3129 3127 3125 3123 3121 3119 3117 3115 3113 3111 3109 3107 3105 3104
3141 3141 3141 3142 3142 3143 3143 3144 3145 3145 3145 3145 3144 3143 3142 3142 3141 3142 3141 3140 3140 3140 3140 3138 3134 3132 3131 3129 3127 3125 3123 3121 3119 3117 3115 3114 3112 3110 3107 3105 3104 3102 3100
3137 3136 3136 3137 3138 3138 3139 3139 3141 3141 3141 3142 3140 3139 3138 3138 3137 3137 3136 3135 3135 3136 3135 3133 3131 3129 3127 3126 3125 3124 3122 3120 3118 3116 3113 3111 3108 3106 3104 3102 3100 3098 3096
3132 3133 3133 3133 3134 3134 3134 3135 3136 3137 3138 3137 3136 3135 3134 3134 3134 3133 3132 3132 3132 3132 3130 3129 3128 3126 3125 3124 3122 3121 3119 3117 3115 3112 3110 3108 3105 3102 3099 3097 3095 3094 3092
3129 3129 3129 3129 3129 3130 3130 3131 3132 3133 3134 3134 3133 3132 3131 3131 3130 3129 3129 3129 3129 3128 3127 3126 3125 3124 3123 3122 3121 3119 3117 3114 3112 3109 3107 3104 3102 3099 3096 3094 3092 3090 3089
3126 3125 3125 3125 3125 3126 3127 3129 3130 3131 3131 3131 3130 3129 3128 3127 3127 3126 3126 3126 3126 3126 3125 3124 3124 3123 3122 3120 3118 3116 3114 3112 3110 3107 3104 3101 3098 3096 3093 3091 3089 3088 3086
3122 3122 3122 3122 3122 3124 3125 3126 3127 3128 3128 3128 3128 3127 3126 3125 3124 3124 3124 3124 3124 3123 3122 3121 3121 3121 3119 3117 3115 3113 3111 3109 3106 3104 3101 3099 3096 3094 3092 3089 3087 3086 3084
3119 3118 3118 3119 3120 3121 3123 3124 3125 3126 3126 3126 3126 3125 3124 3123 3123 3123 3123 3123 3123 3122 3121 3120 3118 3117 3116 3114 3112 3110 3108 3105 3103 3100 3098 3096 3093 3090 3088 3086 3084 3082 3080
3114 3115 3116 3117 3118 3120 3121 3122 3122 3123 3124 3124 3123 3122 3122 3122 3121 3121 3121 3120 3119 3119 3118 3117 3115 3114 3112 3111 3109 3107 3104 3102 3099 3097 3094 3092 3089 3086 3083 3081 3078 3075 3073
3112 3112 3113 3115 3117 3118 3119 3120 3121 3121 3121 3121 3121 3120 3119 3118 3118 3118 3117 3116 3116 3115 3114 3112 3110 3108 3107 3105 3103 3101 3098 3095 3093 3090 3088 3085 3082 3079 3076 3073 3070 3068 3065
3109 3110 3111 3113 3115 3116 3116 3117 3117 3117 3118 3117 3116 3116 3115 3114 3114 3114 3113 3113 3112 3110 3109 3107 3105 3103 3101 3099 3096 3094 3091 3088 3085 3082 3079 3076 3073 3070 3066 3063 3061 3059 3056
3105 3107 3110 3111 3112 3112 3113 3114 3114 3114 3114 3113 3111 3111 3110 3109 3109 3109 3108 3107 3106 3104 3102 3100 3098 3096 3094 3091 3088 3086 3083 3079 3076 3073 3069 3066 3063 3060 3058 3055 3052 3049 3046
3102 3105 3106 3108 3108 3109 3109 3109 3109 3110 3109 3107 3106 3105 3104 3105 3103 3103 3102 3100 3099 3097 3095 3093 3091 3088 3085 3083 3080 3077 3074 3071 3067 3064 3061 3057 3054 3051 3048 3045 3042 3040 3037